Weather History for Marathon, FL

Change the Weather History Date:

Saturday, October 13, 2012

  Actual Average Record
Temperature  
Mean Temperature 81 °F 81 °F  
Max Temperature 87 °F 86 °F 90 °F (2002)
Min Temperature 75 °F 76 °F 73 °F (1998)
Degree Days  
Heating Degree Days 0 0  
Month to date heating degree days 0 0  
Since 1 July heating degree days 0 0  
Cooling Degree Days 16 16  
Month to date cooling degree days 245 224  
Year to date cooling degree days 4488 4178  
Growing Degree Days 31 (Base 50)    
Moisture  
Dew Point 70 °F    
Average Humidity 72    
Maximum Humidity 88    
Minimum Humidity 55    
Precipitation  
Precipitation 0.01 in 0.17 in 1.48 in (1998)
Month to date precipitation 1.98 2.34  
Year to date precipitation 42.11 38.89  
Snow  
Snow 0.00 in - - ()
Month to date snowfall 0.0  
Since 1 July snowfall 0.0  
Since 1 September snowfall 0.0  
Snow Depth 0.00 in    
Sea Level Pressure  
Sea Level Pressure 30.04 in    
Wind  
Wind Speed 15 mph (NE)    
Max Wind Speed 24 mph    
Max Gust Speed 30 mph    
Visibility 10 miles    
Events      
T = Trace of Precipitation, MM = Missing Value Source: NWS Daily Summary

Daily Weather History Graph

Daily Weather History Graph

Search for Another Location

Airport:

Trip Planner

Search our weather history database for the weather conditions in past years. The results will help you decide how hot, cold, wet, or windy it might be!

Date:

Astronomy

Oct. 13, 2012 Rise Set
Actual Time 7:21 AM EDT 6:58 PM EDT
Civil Twilight 6:58 AM EDT 7:21 PM EDT
Nautical Twilight 6:32 AM EDT 7:48 PM EDT
Astronomical Twilight 6:05 AM EDT 8:14 PM EDT
Moon 5:19 AM EDT (10/13) 5:35 PM EDT (10/13)
Length of Visible Light 12h 23m
Length of Day
11h 37m
Waning Crescent, 5% of the Moon is Illuminated
Oct 13
Waning Crescent
Oct 15
New
Oct 21
First Quarter
Oct 29
Full
Nov 6
Last Quarter

Hourly Weather History & Observations

Time (EDT) Temp. Heat Index Dew Point Humidity Pressure Visibility Wind Dir Wind Speed Gust Speed Precip Events Conditions
12:53 AM 79.0 °F - 66.0 °F 64% 30.08 in 10.0 mi NNE 13.8 mph 24.2 mph N/A   Clear
1:53 AM 78.1 °F - 66.9 °F 68% 30.06 in 10.0 mi North 15.0 mph 21.9 mph N/A   Clear
2:53 AM 77.0 °F - 68.0 °F 74% 30.04 in 10.0 mi NNE 11.5 mph - N/A   Clear
3:53 AM 77.0 °F - 68.0 °F 74% 30.03 in 10.0 mi NNE 12.7 mph 21.9 mph N/A   Clear
4:53 AM 77.0 °F - 69.1 °F 76% 30.02 in 10.0 mi NNE 13.8 mph 20.7 mph N/A   Clear
5:53 AM 77.0 °F - 69.1 °F 76% 30.03 in 10.0 mi North 12.7 mph 21.9 mph N/A   Clear
6:53 AM 75.9 °F - 70.0 °F 82% 30.04 in 10.0 mi NNE 11.5 mph 19.6 mph N/A   Clear
7:53 AM 75.9 °F - 70.0 °F 82% 30.05 in 10.0 mi North 13.8 mph 21.9 mph N/A   Scattered Clouds
8:53 AM 77.0 °F - 71.1 °F 82% 30.07 in 10.0 mi NNE 12.7 mph 21.9 mph N/A   Mostly Cloudy
9:53 AM 77.0 °F - 73.9 °F 90% 30.08 in 10.0 mi NNE 13.8 mph 20.7 mph 0.01 in   Overcast
10:53 AM 77.0 °F - 73.0 °F 88% 30.08 in 10.0 mi NNE 11.5 mph - N/A   Overcast
11:53 AM 80.1 °F 84.2 °F 73.0 °F 79% 30.08 in 10.0 mi NE 13.8 mph - N/A   Overcast
12:53 PM 82.9 °F 90.2 °F 75.0 °F 77% 30.05 in 10.0 mi NE 12.7 mph - N/A   Partly Cloudy
1:53 PM 86.0 °F 91.5 °F 71.1 °F 61% 30.02 in 10.0 mi ENE 17.3 mph 26.5 mph N/A   Partly Cloudy
2:53 PM 87.1 °F 91.3 °F 69.1 °F 55% 30.00 in 10.0 mi NE 19.6 mph 25.3 mph N/A   Clear
3:53 PM 86.0 °F 89.4 °F 68.0 °F 55% 29.99 in 10.0 mi ENE 19.6 mph 27.6 mph N/A   Clear
4:53 PM 84.9 °F 88.8 °F 69.1 °F 59% 29.99 in 10.0 mi ENE 18.4 mph 24.2 mph N/A   Scattered Clouds
5:53 PM 82.9 °F 85.8 °F 68.0 °F 60% 29.99 in 10.0 mi ENE 19.6 mph 24.2 mph N/A   Clear
6:53 PM 82.0 °F 85.5 °F 69.1 °F 65% 30.00 in 10.0 mi ENE 15.0 mph - N/A   Clear
8:53 PM 80.1 °F 84.2 °F 73.0 °F 79% 30.03 in 10.0 mi NE 16.1 mph 25.3 mph N/A   Overcast
10:53 PM 80.1 °F 85.1 °F 75.0 °F 85% 30.03 in 10.0 mi NE 12.7 mph - N/A   Partly Cloudy
11:53 PM 81.0 °F 86.2 °F 73.9 °F 79% 30.02 in 10.0 mi NE 12.7 mph - N/A   Mostly Cloudy